Ft Lauderdale, FL

10:45 AM EDT on April 22, 2018 (GMT -0400)
Fort Lauderdale-Hollywood International

Weather History for KFLL - November, 2010

Change the Weather History Date:

Friday, November 26, 2010

  Actual Average Record
Temperature  
Mean Temperature 77 °F 74 °F  
Max Temperature 81 °F 80 °F 87 °F (1955)
Min Temperature 72 °F 68 °F 35 °F (1950)
Degree Days  
Heating Degree Days 0 0  
Month to date heating degree days 7 0  
Since 1 July heating degree days 7 0  
Cooling Degree Days 12 9  
Month to date cooling degree days 207 283  
Year to date cooling degree days 4130 4477  
Growing Degree Days 27 (Base 50)    
Moisture  
Dew Point 65 °F    
Average Humidity 69    
Maximum Humidity 79    
Minimum Humidity 58    
Precipitation  
Precipitation 0.00 in 0.10 in 1.17 in (1974)
Month to date precipitation 0.96 2.83  
Year to date precipitation 58.39 59.31  
Snow  
Snow 0.00 in - - ()
Month to date snowfall 0.0  
Since 1 July snowfall 0.0  
Since 1 September snowfall 0.0  
Snow Depth 0.00 in    
Sea Level Pressure  
Sea Level Pressure 30.00 in    
Wind  
Wind Speed 8 mph (South)    
Max Wind Speed 16 mph    
Max Gust Speed 20 mph    
Visibility 10 miles    
Events      
T = Trace of Precipitation, MM = Missing Value Source: NWS Daily Summary

Daily Weather History Graph

Daily Weather History Graph

Search for Another Location

Airport or City:

Astronomy

Nov. 26, 2010 Rise Set
Actual Time 6:47 AM EST 5:28 PM EST
Civil Twilight 6:22 AM EST 5:53 PM EST
Nautical Twilight 5:53 AM EST 6:21 PM EST
Astronomical Twilight 5:26 AM EST 6:49 PM EST
Moon 10:25 PM EST (11/26) 10:59 AM EST (11/26)
Length of Visible Light 11h 31m
Length of Day
10h 41m
Waning Gibbous, 73% of the Moon is Illuminated
Nov 26
Waning Gibbous
Nov 28
Last Quarter
Dec 5
New
Dec 13
First Quarter
Dec 21
Full

Hourly Weather History & Observations

Time (EST) Temp. Heat Index Dew Point Humidity Pressure Visibility Wind Dir Wind Speed Gust Speed Precip Events Conditions
12:53 AM 75.0 °F - 64.9 °F 71% 30.03 in 10.0 mi SE 11.5 mph - N/A   Mostly Cloudy
1:53 AM 75.0 °F - 64.9 °F 71% 30.01 in 10.0 mi SSE 9.2 mph - N/A   Mostly Cloudy
2:53 AM 73.9 °F - 64.9 °F 73% 30.01 in 10.0 mi SE 11.5 mph 18.4 mph N/A   Mostly Cloudy
3:53 AM 73.9 °F - 64.9 °F 73% 30.00 in 10.0 mi SE 9.2 mph - N/A   Mostly Cloudy
4:53 AM 73.9 °F - 64.9 °F 73% 30.00 in 10.0 mi SE 6.9 mph - N/A   Mostly Cloudy
5:53 AM 73.9 °F - 64.9 °F 73% 30.01 in 10.0 mi SE 10.4 mph - N/A   Mostly Cloudy
6:53 AM 73.9 °F - 64.9 °F 73% 30.01 in 10.0 mi SE 9.2 mph 17.3 mph N/A   Mostly Cloudy
7:53 AM 75.0 °F - 66.0 °F 73% 30.02 in 10.0 mi SSE 9.2 mph - N/A   Mostly Cloudy
8:53 AM 75.9 °F - 64.9 °F 69% 30.04 in 10.0 mi SSE 12.7 mph 18.4 mph N/A   Overcast
9:53 AM 77.0 °F - 66.0 °F 69% 30.04 in 10.0 mi SSE 8.1 mph 18.4 mph N/A   Overcast
10:53 AM 78.1 °F - 66.9 °F 68% 30.03 in 10.0 mi South 9.2 mph - N/A   Overcast
11:53 AM 81.0 °F 83.0 °F 66.0 °F 60% 30.00 in 10.0 mi South 10.4 mph - N/A   Scattered Clouds
12:53 PM 80.1 °F 81.9 °F 64.9 °F 60% 29.98 in 10.0 mi South 10.4 mph - N/A   Overcast
1:53 PM 80.1 °F 81.9 °F 64.9 °F 60% 29.97 in 10.0 mi South 9.2 mph - N/A   Overcast
2:53 PM 79.0 °F - 63.0 °F 58% 29.96 in 10.0 mi South 9.2 mph - N/A   Overcast
3:53 PM 78.1 °F - 64.0 °F 62% 29.96 in 10.0 mi South 9.2 mph - N/A   Overcast
4:53 PM 78.1 °F - 64.9 °F 64% 29.96 in 10.0 mi South 9.2 mph - N/A   Mostly Cloudy
5:53 PM 75.9 °F - 64.9 °F 69% 29.97 in 10.0 mi South 4.6 mph - N/A   Partly Cloudy
6:53 PM 75.0 °F - 66.0 °F 73% 29.99 in 10.0 mi South 3.5 mph - N/A   Partly Cloudy
7:53 PM 73.0 °F - 66.0 °F 79% 30.00 in 10.0 mi South 3.5 mph - N/A   Partly Cloudy
8:53 PM 73.0 °F - 66.0 °F 79% 30.00 in 10.0 mi SSW 3.5 mph - N/A   Scattered Clouds
9:53 PM 73.0 °F - 66.9 °F 81% 30.00 in 10.0 mi SW 3.5 mph - N/A   Scattered Clouds
10:53 PM 73.0 °F - 66.9 °F 81% 30.00 in 10.0 mi SSW 3.5 mph - N/A   Overcast
11:53 PM 73.0 °F - 66.9 °F 81% 29.99 in 10.0 mi Calm Calm - N/A   Mostly Cloudy